When you browse on this site, cookies collect data to enhance your experience and personalize the content and advertising you see.
Visit our Privacy Policy to learn more. By continuing to use the site, you agree to this use of cookies and data.
  • In United Kingdom
  • List of Countries
  • For 7 days
  • Water Temperature
  • Satellite Maps
  • Weather Map
  • Weather Widgets
  • user-avatar
    Login

    Hourly Weather Nahf

    Today, 21 May, Tuesday

    Time Temperature Precipitation Wind Pressure Humidity
    00:00 +22°C° 0 mm 1 mps 738 mmHg 58%
    01:00 +22°C° 0 mm 1 mps 738 mmHg 57%
    02:00 +20°C° 0 mm 0 mps 738 mmHg 55%
    03:00 +20°C° 0 mm 0 mps 738 mmHg 54%
    04:00 +20°C° 0 mm 0 mps 738 mmHg 53%
    05:00 +20°C° 0 mm 0 mps 738 mmHg 52%
    06:00 +24°C° 0 mm 1 mps 739 mmHg 46%
    07:00 +26°C° 0 mm 1 mps 739 mmHg 40%
    08:00 +29°C° 0 mm 1 mps 739 mmHg 33%
    09:00 +30°C° 0 mm 2 mps 739 mmHg 31%
    10:00 +32°C° 0 mm 2 mps 739 mmHg 28%
    11:00 +34°C° 0 mm 3 mps 740 mmHg 26%
    12:00 +34°C° 0 mm 3 mps 739 mmHg 27%
    13:00 +34°C° 0 mm 4 mps 739 mmHg 29%
    14:00 +34°C° 0 mm 5 mps 739 mmHg 30%
    15:00 +33°C° 0 mm 4 mps 739 mmHg 32%
    16:00 +30°C° 0 mm 4 mps 739 mmHg 34%
    17:00 +29°C° 0 mm 4 mps 738 mmHg 35%
    18:00 +28°C° 0 mm 3 mps 739 mmHg 40%
    19:00 +26°C° 0 mm 2 mps 739 mmHg 44%
    20:00 +25°C° 0 mm 2 mps 739 mmHg 48%
    21:00 +24°C° 0 mm 1 mps 739 mmHg 48%
    22:00 +24°C° 0 mm 1 mps 739 mmHg 47%
    23:00 +24°C° 0 mm 1 mps 739 mmHg 47%

    Tomorrow, 22 May, Wednesday

    Time Temperature Precipitation Wind Pressure Humidity
    00:00 +24°C° 0 mm 1 mps 739 mmHg 44%
    01:00 +24°C° 0 mm 1 mps 739 mmHg 41%
    02:00 +24°C° 0 mm 1 mps 738 mmHg 38%
    03:00 +24°C° 0 mm 1 mps 738 mmHg 38%
    04:00 +23°C° 0 mm 1 mps 738 mmHg 37%
    05:00 +21°C° 0 mm 0 mps 739 mmHg 37%
    06:00 +24°C° 0 mm 0 mps 739 mmHg 33%
    07:00 +26°C° 0 mm 0 mps 739 mmHg 28%
    08:00 +29°C° 0 mm 0 mps 740 mmHg 24%
    09:00 +32°C° 0 mm 1 mps 740 mmHg 22%
    10:00 +35°C° 0 mm 2 mps 740 mmHg 20%
    11:00 +37°C° 0 mm 3 mps 740 mmHg 17%
    12:00 +37°C° 0 mm 3 mps 740 mmHg 18%
    13:00 +36°C° 0 mm 4 mps 740 mmHg 19%
    14:00 +36°C° 0 mm 4 mps 739 mmHg 19%
    15:00 +35°C° 0 mm 4 mps 739 mmHg 21%
    16:00 +34°C° 0 mm 3 mps 739 mmHg 22%
    17:00 +34°C° 0 mm 3 mps 738 mmHg 23%
    18:00 +31°C° 0 mm 2 mps 738 mmHg 26%
    19:00 +29°C° 0 mm 2 mps 739 mmHg 29%
    20:00 +27°C° 0 mm 1 mps 739 mmHg 32%
    21:00 +27°C° 0 mm 1 mps 739 mmHg 31%
    22:00 +27°C° 0 mm 1 mps 739 mmHg 29%
    23:00 +26°C° 0 mm 1 mps 739 mmHg 28%

    Day after tomorrow, 23 May, Thursday

    Time Temperature Precipitation Wind Pressure Humidity
    00:00 +26°C° 0 mm 1 mps 738 mmHg 27%
    01:00 +26°C° 0 mm 1 mps 738 mmHg 27%
    02:00 +26°C° 0 mm 1 mps 738 mmHg 26%
    03:00 +26°C° 0 mm 1 mps 738 mmHg 26%
    04:00 +26°C° 0 mm 1 mps 738 mmHg 27%
    05:00 +26°C° 0 mm 1 mps 737 mmHg 27%
    06:00 +28°C° 0 mm 1 mps 738 mmHg 24%
    07:00 +31°C° 0 mm 1 mps 738 mmHg 22%
    08:00 +33°C° 0 mm 1 mps 738 mmHg 20%
    09:00 +35°C° 0 mm 1 mps 738 mmHg 18%
    10:00 +37°C° 0 mm 1 mps 738 mmHg 17%
    11:00 +40°C° 0 mm 1 mps 738 mmHg 15%
    12:00 +40°C° 0 mm 2 mps 738 mmHg 15%
    13:00 +40°C° 0 mm 3 mps 737 mmHg 15%
    14:00 +42°C° 0 mm 3 mps 737 mmHg 15%
    15:00 +39°C° 0 mm 3 mps 737 mmHg 17%
    16:00 +38°C° 0 mm 3 mps 736 mmHg 19%
    17:00 +37°C° 0 mm 3 mps 736 mmHg 21%
    18:00 +35°C° 0 mm 3 mps 736 mmHg 23%
    19:00 +32°C° 0 mm 2 mps 736 mmHg 24%
    20:00 +31°C° 0 mm 2 mps 736 mmHg 26%
    21:00 +30°C° 0 mm 2 mps 736 mmHg 23%
    22:00 +30°C° 0 mm 2 mps 736 mmHg 21%
    23:00 +30°C° 0 mm 2 mps 736 mmHg 19%

    24 May, Friday

    Time Temperature Precipitation Wind Pressure Humidity
    00:00 +30°C° 0 mm 2 mps 735 mmHg 19%
    01:00 +30°C° 0 mm 3 mps 735 mmHg 18%
    02:00 +30°C° 0 mm 3 mps 735 mmHg 18%
    03:00 +29°C° 0 mm 3 mps 735 mmHg 18%
    04:00 +29°C° 0 mm 4 mps 734 mmHg 19%
    05:00 +29°C° 0 mm 4 mps 734 mmHg 20%
    06:00 +33°C° 0 mm 4 mps 735 mmHg 18%
    07:00 +35°C° 0 mm 5 mps 735 mmHg 17%
    08:00 +39°C° 0 mm 5 mps 735 mmHg 15%
    09:00 +41°C° 0 mm 5 mps 735 mmHg 14%
    10:00 +42°C° 0 mm 5 mps 735 mmHg 12%
    11:00 +45°C° 0 mm 5 mps 735 mmHg 10%
    12:00 +45°C° 0 mm 4 mps 735 mmHg 10%
    13:00 +45°C° 0 mm 4 mps 735 mmHg 9%
    14:00 +47°C° 0 mm 4 mps 734 mmHg 9%
    15:00 +44°C° 0 mm 3 mps 734 mmHg 11%
    16:00 +43°C° 0 mm 3 mps 734 mmHg 14%
    17:00 +40°C° 0 mm 2 mps 733 mmHg 16%
    18:00 +39°C° 0 mm 2 mps 734 mmHg 16%
    19:00 +37°C° 0 mm 2 mps 734 mmHg 16%
    20:00 +35°C° 0 mm 2 mps 734 mmHg 17%
    21:00 +34°C° 0 mm 1 mps 734 mmHg 17%
    22:00 +33°C° 0 mm 1 mps 734 mmHg 17%
    23:00 +32°C° 0 mm 1 mps 734 mmHg 17%

    25 May, Saturday

    Time Temperature Precipitation Wind Pressure Humidity
    00:00 +32°C° 0 mm 1 mps 733 mmHg 16%
    01:00 +31°C° 0 mm 1 mps 733 mmHg 15%
    02:00 +31°C° 0 mm 1 mps 733 mmHg 15%
    03:00 +30°C° 0 mm 1 mps 734 mmHg 23%
    04:00 +28°C° 0 mm 1 mps 734 mmHg 31%
    05:00 +27°C° 0 mm 2 mps 734 mmHg 39%
    06:00 +28°C° 0 mm 2 mps 735 mmHg 41%
    07:00 +29°C° 0 mm 2 mps 735 mmHg 43%
    08:00 +30°C° 0 mm 2 mps 736 mmHg 44%
    09:00 +31°C° 0 mm 3 mps 736 mmHg 44%
    10:00 +33°C° 0 mm 3 mps 736 mmHg 43%
    11:00 +33°C° 0 mm 4 mps 736 mmHg 42%
    12:00 +33°C° 0 mm 4 mps 736 mmHg 43%
    13:00 +33°C° 0 mm 4 mps 736 mmHg 44%
    14:00 +33°C° 0 mm 4 mps 736 mmHg 45%
    15:00 +32°C° 0 mm 4 mps 736 mmHg 47%
    16:00 +30°C° 0 mm 3 mps 736 mmHg 49%
    17:00 +29°C° 0 mm 3 mps 736 mmHg 52%
    18:00 +27°C° 0 mm 3 mps 736 mmHg 58%
    19:00 +26°C° 0 mm 2 mps 736 mmHg 65%
    20:00 +24°C° 0 mm 2 mps 736 mmHg 72%
    21:00 +24°C° 0 mm 2 mps 736 mmHg 72%
    22:00 +23°C° 0 mm 1 mps 736 mmHg 72%
    23:00 +23°C° 0 mm 1 mps 736 mmHg 72%

    26 May, Sunday

    Time Temperature Precipitation Wind Pressure Humidity
    00:00 +23°C° 0 mm 1 mps 736 mmHg 73%
    01:00 +22°C° 0 mm 1 mps 736 mmHg 73%
    02:00 +22°C° 0 mm 1 mps 736 mmHg 74%
    03:00 +22°C° 0 mm 1 mps 736 mmHg 72%
    04:00 +22°C° 0 mm 1 mps 736 mmHg 70%
    05:00 +22°C° 0 mm 1 mps 736 mmHg 68%
    06:00 +24°C° 0 mm 1 mps 736 mmHg 60%
    07:00 +26°C° 0 mm 2 mps 736 mmHg 51%
    08:00 +28°C° 0 mm 2 mps 737 mmHg 43%
    09:00 +29°C° 0 mm 2 mps 736 mmHg 40%
    10:00 +30°C° 0 mm 3 mps 736 mmHg 37%
    11:00 +33°C° 0 mm 3 mps 736 mmHg 34%
    12:00 +33°C° 0 mm 3 mps 736 mmHg 33%
    13:00 +33°C° 0 mm 4 mps 736 mmHg 33%
    14:00 +34°C° 0 mm 4 mps 735 mmHg 33%
    15:00 +33°C° 0 mm 4 mps 735 mmHg 35%
    16:00 +31°C° 0 mm 3 mps 735 mmHg 37%
    17:00 +30°C° 0 mm 3 mps 735 mmHg 38%
    18:00 +29°C° 0 mm 2 mps 735 mmHg 44%
    19:00 +27°C° 0 mm 2 mps 735 mmHg 49%
    20:00 +26°C° 0 mm 1 mps 735 mmHg 54%
    21:00 +25°C° 0 mm 2 mps 735 mmHg 54%
    22:00 +25°C° 0 mm 2 mps 735 mmHg 55%
    23:00 +24°C° 0 mm 2 mps 735 mmHg 56%
    Show more